When you browse on this site, cookies collect data to enhance your experience and personalize the content and advertising you see.
Visit our Privacy Policy to learn more. By continuing to use the site, you agree to this use of cookies and data.
  • En España
  • Lista de países
  • Para 7 días
  • Temperatura del agua
  • El tiempo en el mapa
  • Informadores
  • user-avatar
    Iniciar sesión

    Tiempo cada hora Ouahigouya

    Hoy, 28 Marzo, Sábado

    Tiempo Temperatura Precipitaciones Viento Presión Humedad
    00:00 +31°C° 0 mm 3 mps 729 mmHg 12%
    01:00 +31°C° 0 mm 3 mps 728 mmHg 12%
    02:00 +31°C° 0 mm 3 mps 728 mmHg 12%
    03:00 +31°C° 0 mm 3 mps 727 mmHg 12%
    04:00 +31°C° 0 mm 3 mps 727 mmHg 12%
    05:00 +31°C° 0 mm 2 mps 728 mmHg 13%
    06:00 +30°C° 0 mm 2 mps 728 mmHg 14%
    07:00 +32°C° 0 mm 2 mps 728 mmHg 13%
    08:00 +34°C° 0 mm 3 mps 729 mmHg 12%
    09:00 +35°C° 0 mm 3 mps 729 mmHg 11%
    10:00 +37°C° 0 mm 3 mps 729 mmHg 9%
    11:00 +39°C° 0 mm 3 mps 729 mmHg 8%
    12:00 +41°C° 0 mm 2 mps 729 mmHg 7%
    13:00 +42°C° 0 mm 2 mps 728 mmHg 7%
    14:00 +42°C° 0 mm 2 mps 727 mmHg 7%
    15:00 +43°C° 0 mm 1 mps 727 mmHg 7%
    16:00 +42°C° 0 mm 2 mps 727 mmHg 7%
    17:00 +42°C° 0 mm 3 mps 727 mmHg 8%
    18:00 +39°C° 0 mm 3 mps 727 mmHg 8%
    19:00 +37°C° 0 mm 3 mps 727 mmHg 9%
    20:00 +35°C° 0 mm 3 mps 728 mmHg 10%
    21:00 +33°C° 0 mm 3 mps 728 mmHg 11%
    22:00 +32°C° 0 mm 2 mps 728 mmHg 11%
    23:00 +31°C° 0 mm 2 mps 728 mmHg 12%

    Mañana, 29 Marzo, Domingo

    Tiempo Temperatura Precipitaciones Viento Presión Humedad
    00:00 +30°C° 0 mm 1 mps 728 mmHg 13%
    01:00 +30°C° 0 mm 2 mps 727 mmHg 13%
    02:00 +30°C° 0 mm 3 mps 727 mmHg 12%
    03:00 +30°C° 0 mm 3 mps 727 mmHg 12%
    04:00 +30°C° 0 mm 4 mps 727 mmHg 13%
    05:00 +29°C° 0 mm 4 mps 727 mmHg 13%
    06:00 +29°C° 0 mm 4 mps 727 mmHg 13%
    07:00 +33°C° 0 mm 4 mps 728 mmHg 12%
    08:00 +36°C° 0 mm 4 mps 729 mmHg 11%
    09:00 +40°C° 0 mm 5 mps 730 mmHg 10%
    10:00 +41°C° 0 mm 5 mps 729 mmHg 9%
    11:00 +43°C° 0 mm 5 mps 729 mmHg 8%
    12:00 +45°C° 0 mm 5 mps 728 mmHg 7%
    13:00 +46°C° 0 mm 5 mps 728 mmHg 7%
    14:00 +46°C° 0 mm 5 mps 727 mmHg 7%
    15:00 +45°C° 0 mm 4 mps 726 mmHg 7%
    16:00 +44°C° 0 mm 4 mps 726 mmHg 8%
    17:00 +42°C° 0 mm 3 mps 726 mmHg 9%
    18:00 +40°C° 0 mm 3 mps 725 mmHg 10%
    19:00 +38°C° 0 mm 3 mps 726 mmHg 11%
    20:00 +37°C° 0 mm 3 mps 726 mmHg 12%
    21:00 +35°C° 0 mm 3 mps 727 mmHg 13%
    22:00 +34°C° 0 mm 4 mps 726 mmHg 15%
    23:00 +34°C° 0 mm 4 mps 726 mmHg 18%

    Pasado mañana, 30 Marzo, Lunes

    Tiempo Temperatura Precipitaciones Viento Presión Humedad
    00:00 +33°C° 0 mm 4 mps 726 mmHg 20%
    01:00 +32°C° 0 mm 4 mps 726 mmHg 20%
    02:00 +30°C° 0 mm 4 mps 726 mmHg 20%
    03:00 +30°C° 0 mm 4 mps 726 mmHg 21%
    04:00 +30°C° 0 mm 4 mps 726 mmHg 21%
    05:00 +29°C° 0 mm 5 mps 726 mmHg 20%
    06:00 +29°C° 0 mm 5 mps 726 mmHg 20%
    07:00 +32°C° 0 mm 6 mps 727 mmHg 18%
    08:00 +35°C° 0 mm 6 mps 727 mmHg 15%
    09:00 +38°C° 0 mm 7 mps 728 mmHg 13%
    10:00 +40°C° 0 mm 7 mps 728 mmHg 12%
    11:00 +42°C° 0 mm 6 mps 727 mmHg 11%
    12:00 +45°C° 0 mm 6 mps 727 mmHg 10%
    13:00 +45°C° 0 mm 5 mps 726 mmHg 9%
    14:00 +46°C° 0 mm 5 mps 726 mmHg 9%
    15:00 +45°C° 0 mm 4 mps 725 mmHg 8%
    16:00 +44°C° 0 mm 4 mps 725 mmHg 9%
    17:00 +43°C° 0 mm 3 mps 725 mmHg 10%
    18:00 +40°C° 0 mm 3 mps 724 mmHg 10%
    19:00 +39°C° 0 mm 3 mps 725 mmHg 11%
    20:00 +37°C° 0 mm 3 mps 725 mmHg 12%
    21:00 +36°C° 0 mm 3 mps 726 mmHg 13%
    22:00 +35°C° 0 mm 4 mps 726 mmHg 14%
    23:00 +34°C° 0 mm 4 mps 726 mmHg 15%

    31 Marzo, Martes

    Tiempo Temperatura Precipitaciones Viento Presión Humedad
    00:00 +33°C° 0 mm 5 mps 726 mmHg 15%
    01:00 +32°C° 0 mm 5 mps 725 mmHg 16%
    02:00 +32°C° 0 mm 4 mps 725 mmHg 16%
    03:00 +30°C° 0 mm 4 mps 725 mmHg 17%
    04:00 +29°C° 0 mm 4 mps 725 mmHg 17%
    05:00 +28°C° 0 mm 3 mps 726 mmHg 18%
    06:00 +27°C° 0 mm 3 mps 726 mmHg 18%
    07:00 +30°C° 0 mm 4 mps 727 mmHg 15%
    08:00 +34°C° 0 mm 5 mps 728 mmHg 11%
    09:00 +38°C° 0 mm 6 mps 729 mmHg 8%
    10:00 +40°C° 0 mm 6 mps 728 mmHg 8%
    11:00 +42°C° 0 mm 6 mps 728 mmHg 7%
    12:00 +45°C° 0 mm 6 mps 728 mmHg 7%
    13:00 +46°C° 0 mm 5 mps 727 mmHg 7%
    14:00 +45°C° 0 mm 4 mps 726 mmHg 7%
    15:00 +45°C° 0 mm 4 mps 726 mmHg 7%
    16:00 +44°C° 0 mm 3 mps 725 mmHg 8%
    17:00 +43°C° 0 mm 3 mps 725 mmHg 8%
    18:00 +40°C° 0 mm 3 mps 725 mmHg 9%
    19:00 +39°C° 0 mm 3 mps 726 mmHg 10%
    20:00 +37°C° 0 mm 3 mps 726 mmHg 11%
    21:00 +36°C° 0 mm 3 mps 726 mmHg 12%
    22:00 +35°C° 0 mm 3 mps 726 mmHg 13%
    23:00 +34°C° 0 mm 3 mps 726 mmHg 14%

    1 Abril, Miércoles

    Tiempo Temperatura Precipitaciones Viento Presión Humedad
    00:00 +33°C° 0 mm 3 mps 727 mmHg 14%
    01:00 +32°C° 0 mm 4 mps 726 mmHg 15%
    02:00 +32°C° 0 mm 4 mps 726 mmHg 15%
    03:00 +30°C° 0 mm 5 mps 726 mmHg 16%
    04:00 +30°C° 0 mm 5 mps 726 mmHg 15%
    05:00 +29°C° 0 mm 5 mps 727 mmHg 14%
    06:00 +29°C° 0 mm 5 mps 727 mmHg 14%
    07:00 +33°C° 0 mm 6 mps 728 mmHg 12%
    08:00 +35°C° 0 mm 7 mps 728 mmHg 9%
    09:00 +39°C° 0 mm 8 mps 729 mmHg 7%
    10:00 +41°C° 0 mm 7 mps 728 mmHg 7%
    11:00 +44°C° 0 mm 7 mps 728 mmHg 6%
    12:00 +47°C° 0 mm 6 mps 728 mmHg 6%
    13:00 +47°C° 0 mm 5 mps 727 mmHg 6%
    14:00 +47°C° 0 mm 5 mps 726 mmHg 6%
    15:00 +47°C° 0 mm 4 mps 725 mmHg 6%
    16:00 +45°C° 0 mm 3 mps 725 mmHg 7%
    17:00 +43°C° 0 mm 3 mps 725 mmHg 7%
    18:00 +41°C° 0 mm 2 mps 725 mmHg 8%
    19:00 +39°C° 0 mm 2 mps 725 mmHg 9%
    20:00 +37°C° 0 mm 3 mps 726 mmHg 10%
    21:00 +36°C° 0 mm 3 mps 726 mmHg 11%
    22:00 +34°C° 0 mm 3 mps 726 mmHg 12%
    23:00 +33°C° 0 mm 3 mps 727 mmHg 12%

    2 Abril, Jueves

    Tiempo Temperatura Precipitaciones Viento Presión Humedad
    00:00 +31°C° 0 mm 3 mps 727 mmHg 13%
    01:00 +31°C° 0 mm 3 mps 726 mmHg 13%
    02:00 +30°C° 0 mm 3 mps 726 mmHg 14%
    03:00 +29°C° 0 mm 3 mps 726 mmHg 14%
    04:00 +29°C° 0 mm 3 mps 726 mmHg 14%
    05:00 +29°C° 0 mm 3 mps 726 mmHg 13%
    06:00 +29°C° 0 mm 3 mps 726 mmHg 13%
    07:00 +31°C° 0 mm 3 mps 727 mmHg 11%
    08:00 +35°C° 0 mm 4 mps 728 mmHg 9%
    09:00 +37°C° 0 mm 4 mps 728 mmHg 7%
    10:00 +40°C° 0 mm 4 mps 728 mmHg 7%
    11:00 +42°C° 0 mm 4 mps 728 mmHg 6%
    12:00 +44°C° 0 mm 4 mps 727 mmHg 6%
    13:00 +45°C° 0 mm 3 mps 727 mmHg 6%
    14:00 +46°C° 0 mm 3 mps 726 mmHg 5%
    15:00 +46°C° 0 mm 3 mps 725 mmHg 5%
    16:00 +43°C° 0 mm 2 mps 725 mmHg 6%
    17:00 +42°C° 0 mm 2 mps 725 mmHg 7%
    18:00 +40°C° 0 mm 1 mps 725 mmHg 8%
    19:00 +36°C° 0 mm 1 mps 725 mmHg 9%
    20:00 +34°C° 0 mm 1 mps 725 mmHg 10%
    21:00 +32°C° 0 mm 1 mps 726 mmHg 11%
    22:00 +32°C° 0 mm 1 mps 726 mmHg 11%
    23:00 +32°C° 0 mm 2 mps 726 mmHg 11%
    Mostrar más